Delta, CO

12:04 AM MDT on April 23, 2017 (GMT -0600)
Delta

Weather History for KAJZ - February, 2013

Change the Weather History Date:

Monday, February 18, 2013

  Actual Average (KMTJ) Record (KMTJ)
Temperature  
Mean Temperature 32 °F -  
Max Temperature 43 °F 43 °F 63 °F (2016)
Min Temperature 21 °F 23 °F 14 °F (2008)
Degree Days  
Heating Degree Days 33    
Moisture  
Dew Point 9 °F    
Average Humidity 39    
Maximum Humidity 63    
Minimum Humidity 19    
Precipitation  
Precipitation 0.00 in - - ()
Sea Level Pressure  
Sea Level Pressure 30.07 in    
Wind  
Wind Speed 7 mph (NE)    
Max Wind Speed 15 mph    
Max Gust Speed 26 mph    
Visibility 10 miles    
Events      
Averages and records for this station are not official NWS values.
T = Trace of Precipitation, MM = Missing Value Source: NWS Daily Summary

Daily Weather History Graph

Daily Weather History Graph

Search for Another Location

Airport or City:

Trip Planner

Search our weather history database for the weather conditions in past years. The results will help you decide how hot, cold, wet, or windy it might be!

Date:

Astronomy

Feb. 18, 2013 Rise Set
Actual Time 6:59 AM MST 5:53 PM MST
Civil Twilight 6:32 AM MST 6:20 PM MST
Nautical Twilight 6:01 AM MST 6:51 PM MST
Astronomical Twilight 5:30 AM MST 7:22 PM MST
Moon 11:43 AM MST (2/18) 1:39 AM MST (2/18)
Length of Visible Light 11h 48m
Length of Day
10h 54m
First Quarter, 59% of the Moon is Illuminated
Feb 18
First Quarter
Feb 25
Full
Mar 4
Last Quarter
Mar 11
New
Mar 19
First Quarter

Hourly Weather History & Observations

Time (MST) Temp. Windchill Dew Point Humidity Pressure Visibility Wind Dir Wind Speed Gust Speed Precip Events Conditions
12:15 AM 36.7 °F 28.4 °F 18.9 °F 49% 29.85 in 10.0 mi West 12.7 mph 26.5 mph N/A   Mostly Cloudy
12:35 AM 36.5 °F 27.4 °F 18.5 °F 48% 29.86 in 10.0 mi West 15.0 mph 21.9 mph N/A   Scattered Clouds
12:55 AM 34.9 °F 26.2 °F 18.9 °F 52% 29.88 in 10.0 mi West 12.7 mph 21.9 mph N/A   Scattered Clouds
1:35 AM 33.1 °F 24.9 °F 16.7 °F 51% 29.89 in 10.0 mi West 10.4 mph - N/A   Clear
1:55 AM 32.4 °F 24.0 °F 14.9 °F 49% 29.91 in 10.0 mi West 10.4 mph - N/A   Clear
2:15 AM 32.0 °F 23.6 °F 14.0 °F 48% 29.92 in 10.0 mi West 10.4 mph - N/A   Clear
2:35 AM 32.0 °F 25.6 °F 13.6 °F 47% 29.93 in 10.0 mi West 6.9 mph - N/A   Clear
2:55 AM 29.7 °F 24.7 °F 13.3 °F 51% 29.94 in 10.0 mi NNW 4.6 mph - N/A   Scattered Clouds
3:15 AM 31.8 °F 22.8 °F 11.3 °F 43% 29.96 in 10.0 mi WNW 11.5 mph - N/A   Clear
3:35 AM 31.5 °F 24.2 °F 11.1 °F 43% 29.97 in 10.0 mi NW 8.1 mph - N/A   Clear
3:55 AM 30.0 °F 24.1 °F 10.2 °F 44% 29.98 in 10.0 mi NW 5.8 mph - N/A   Clear
4:15 AM 31.6 °F 23.1 °F 7.0 °F 35% 29.99 in 10.0 mi NW 10.4 mph 17.3 mph N/A   Clear
4:35 AM 30.7 °F 20.9 °F 8.6 °F 40% 30.00 in 10.0 mi West 12.7 mph 18.4 mph N/A   Clear
4:55 AM 30.0 °F 21.7 °F 9.0 °F 41% 30.02 in 10.0 mi West 9.2 mph - N/A   Clear
5:15 AM 28.4 °F 23.3 °F 9.1 °F 44% 30.03 in 10.0 mi SE 4.6 mph - N/A   Clear
5:35 AM 27.7 °F - 10.0 °F 48% 30.04 in 10.0 mi Calm Calm - N/A   Clear
5:55 AM 27.5 °F - 9.3 °F 46% 30.05 in 10.0 mi Calm Calm - N/A   Clear
6:15 AM 25.0 °F 20.7 °F 9.0 °F 51% 30.05 in 10.0 mi NE 3.5 mph - N/A   Clear
6:35 AM 25.7 °F - 9.5 °F 50% 30.07 in 10.0 mi Calm Calm - N/A   Clear
6:55 AM 25.0 °F 19.3 °F 11.3 °F 56% 30.08 in 10.0 mi East 4.6 mph - N/A   Clear
7:15 AM 21.7 °F 15.5 °F 10.8 °F 63% 30.09 in 10.0 mi NE 4.6 mph - N/A   Clear
7:35 AM 23.0 °F 15.8 °F 11.7 °F 62% 30.10 in 10.0 mi NE 5.8 mph - N/A   Clear
7:55 AM 26.1 °F 21.9 °F 12.9 °F 58% 30.11 in 10.0 mi NNE 3.5 mph - N/A   Clear
8:15 AM 28.0 °F 21.7 °F 12.6 °F 52% 30.12 in 10.0 mi NE 5.8 mph - N/A   Clear
8:35 AM 28.9 °F 23.9 °F 13.1 °F 52% 30.13 in 10.0 mi ENE 4.6 mph - N/A   Clear
8:55 AM 30.0 °F 24.1 °F 12.9 °F 49% 30.14 in 10.0 mi East 5.8 mph - N/A   Clear
9:15 AM 31.5 °F 26.8 °F 13.3 °F 47% 30.14 in 10.0 mi ENE 4.6 mph - N/A   Clear
9:35 AM 32.4 °F 29.1 °F 13.1 °F 45% 30.15 in 10.0 mi East 3.5 mph - N/A   Clear
9:55 AM 33.3 °F 27.9 °F 11.7 °F 41% 30.14 in 10.0 mi NE 5.8 mph - N/A   Clear
10:15 AM 33.8 °F 30.8 °F 10.9 °F 39% 30.14 in 10.0 mi ENE 3.5 mph - N/A   Clear
10:35 AM 35.1 °F 31.0 °F 9.7 °F 35% 30.14 in 10.0 mi East 4.6 mph - N/A   Clear
10:55 AM - - - N/A% - - North - - N/A   Unknown
11:35 AM 37.4 °F - 8.1 °F 30% 30.14 in 10.0 mi Calm Calm - N/A   Unknown
11:55 AM 38.3 °F 34.8 °F 8.8 °F 30% 30.14 in 10.0 mi NE 4.6 mph - N/A   Clear
12:15 PM 39.2 °F 34.2 °F 8.6 °F 28% 30.13 in 10.0 mi SE 6.9 mph - N/A   Clear
12:35 PM 39.2 °F 35.0 °F 8.2 °F 28% 30.12 in 10.0 mi SSE 5.8 mph - N/A   Clear
12:55 PM 39.2 °F 35.9 °F 7.2 °F 27% 30.11 in 10.0 mi ENE 4.6 mph - N/A   Clear
1:15 PM 40.5 °F 35.1 °F 7.7 °F 26% 30.10 in 10.0 mi ESE 8.1 mph - N/A   Clear
1:35 PM 40.8 °F - 5.7 °F 23% 30.10 in 10.0 mi Calm Calm - N/A   Clear
1:55 PM 40.8 °F 37.8 °F 5.2 °F 23% 30.09 in 10.0 mi NE 4.6 mph - N/A   Clear
2:15 PM 41.7 °F 38.8 °F 5.2 °F 22% 30.09 in 10.0 mi ESE 4.6 mph - N/A   Clear
2:35 PM 42.1 °F 38.4 °F 4.8 °F 21% 30.09 in 10.0 mi SE 5.8 mph - N/A   Clear
2:55 PM 42.8 °F - 4.3 °F 20% 30.09 in 10.0 mi Calm Calm - N/A   Clear
3:15 PM 43.7 °F 42.1 °F 3.9 °F 19% 30.09 in 10.0 mi NNW 3.5 mph - N/A   Clear
3:35 PM 43.7 °F 41.1 °F 4.5 °F 20% 30.08 in 10.0 mi South 4.6 mph - N/A   Clear
3:55 PM 42.4 °F 39.6 °F 4.3 °F 21% 30.08 in 10.0 mi SSE 4.6 mph - N/A   Clear
4:35 PM 42.1 °F 37.7 °F 5.4 °F 22% 30.09 in 10.0 mi SSW 6.9 mph - N/A   Clear
4:55 PM 42.8 °F 40.1 °F 5.7 °F 22% 30.09 in 10.0 mi South 4.6 mph - N/A   Clear
5:15 PM 42.3 °F 38.6 °F 6.4 °F 23% 30.09 in 10.0 mi SW 5.8 mph - N/A   Clear
5:35 PM 41.5 °F 37.8 °F 7.0 °F 24% 30.08 in 10.0 mi SW 5.8 mph - N/A   Clear
5:55 PM 40.1 °F 36.9 °F 7.0 °F 25% 30.09 in 10.0 mi West 4.6 mph - N/A   Clear
6:15 PM 38.3 °F - 7.5 °F 28% 30.09 in 10.0 mi Calm Calm - N/A   Clear
6:35 PM 36.7 °F - 7.7 °F 30% 30.10 in 10.0 mi Calm Calm - N/A   Clear
6:55 PM 34.3 °F 28.4 °F 7.2 °F 32% 30.10 in 10.0 mi North 6.9 mph - N/A   Clear
7:15 PM 33.4 °F 27.3 °F 7.5 °F 34% 30.10 in 10.0 mi North 6.9 mph - N/A   Clear
7:35 PM 32.0 °F 27.5 °F 6.6 °F 34% 30.11 in 10.0 mi East 4.6 mph - N/A   Clear
7:55 PM 31.6 °F 25.1 °F 6.4 °F 35% 30.10 in 10.0 mi ENE 6.9 mph - N/A   Clear
8:15 PM 31.6 °F 25.1 °F 7.7 °F 37% 30.11 in 10.0 mi ENE 6.9 mph - N/A   Clear
8:35 PM 31.5 °F - 8.4 °F 38% 30.11 in 10.0 mi Calm Calm - N/A   Clear
8:55 PM 30.9 °F 27.5 °F 8.2 °F 39% 30.11 in 10.0 mi NNE 3.5 mph - N/A   Clear
9:15 PM 29.3 °F 23.2 °F 9.0 °F 43% 30.11 in 10.0 mi ENE 5.8 mph - N/A   Clear
9:35 PM 30.0 °F 21.7 °F 7.7 °F 39% 30.10 in 10.0 mi NE 9.2 mph - N/A   Clear
9:55 PM 32.0 °F 24.2 °F 8.2 °F 37% 30.11 in 10.0 mi ENE 9.2 mph - N/A   Clear
10:15 PM 30.0 °F 22.4 °F 9.9 °F 43% 30.11 in 10.0 mi ENE 8.1 mph - N/A   Clear
10:35 PM 29.8 °F 21.5 °F 9.5 °F 43% 30.11 in 10.0 mi East 9.2 mph - N/A   Clear
10:55 PM 27.9 °F 21.5 °F 10.4 °F 48% 30.11 in 10.0 mi ESE 5.8 mph - N/A   Clear
11:15 PM 26.6 °F 22.6 °F 10.2 °F 50% 30.11 in 10.0 mi ENE 3.5 mph - N/A   Clear
11:35 PM 25.7 °F 19.0 °F 9.7 °F 51% 30.10 in 10.0 mi NE 5.8 mph - N/A   Clear
11:55 PM 23.5 °F 15.4 °F 9.1 °F 54% 30.10 in 10.0 mi NE 6.9 mph - N/A   Clear